Location: Kellogg
(38.0159°N, 90.0546°W)
Time: 00:16:33
(UTC+00:00)

Vanguard 2 - Pass Details

Date: 24 September 2024
Orbit: 552 x 2910 km, 32.9° (Epoch: 15 October)

Event Time Altitude Azimuth Distance (km) Brightness Sun altitude
Rises 10:45:40 0° 267° (W) 2,898 - -13.5°
Reaches altitude 10° 10:47:52 10° 255° (WSW) 2,133 - -13.1°
Exits shadow 10:49:06 17° 245° (WSW) 1,786 8.8 -12.8°
Maximum altitude 10:52:09 31° 194° (SSW) 1,471 8.8 -12.2°
Drops below altitude 10° 10:58:16 10° 135° (SE) 3,098 11.2 -11.0°
Sets 11:02:11 0° 126° (SE) 4,483 12.2 -10.3°
